Date String (YYYY-MM-DD hh:mm:ss) UTC,Instrument flags,absolute air pressure of the measurement (hPa),sample flow rate (lpm),inlet stack bypass flow (lpm),air temperature of the measurement (°C),ambient temperature measured by the external sensor (°C),aerosol sample conditioner tube jacket temperature (°C),OPC LED temperature (°C),internal box temperature (°C),relative humidity of the measurement (%),span deviation,mass concentration of particles derived from Lorenz-Mie calculation of OPC scattering (μg/m³),mass concentration of particles derived from Lorenz-Mie calculation of OPC scattering (μg/m³),mass concentration of particles derived from Lorenz-Mie calculation of OPC scattering (μg/m³)
DateTimeUTC,F1_M11,P_M11,Q1_M11,Q2_M11,T1_M11,T2_M11,T3_M11,T4_M11,T5_M11,U1_M11,ZSPAN_M11,X0_M11,X2_M11,X1_M11
2023-08-02 15:00:00,SystemResetWarning,0835.0,5.00,000.00,032.2,028.6,000.0,039.9,031.9,31.4,0000.0,0008.06,0003.91,0003.33
2023-08-02 15:01:00,SystemResetWarning,0835.0,4.99,000.00,032.2,028.6,000.0,039.9,032.0,31.4,0000.0,0007.73,0003.89,0003.33
2023-08-02 15:02:00,SystemResetWarning,0835.1,4.99,000.00,032.2,028.7,000.0,039.9,032.0,31.5,0000.0,0007.78,0003.92,0003.32
2023-08-02 15:03:00,SystemResetWarning,0835.1,4.99,000.00,032.2,028.7,000.0,040.0,032.0,31.9,0000.0,0007.72,0003.92,0003.32
2023-08-02 15:04:00,SystemResetWarning,0835.0,5.01,000.00,032.1,028.8,000.0,040.0,032.0,32.3,0000.0,0007.75,0003.93,0003.32
2023-08-02 15:05:00,SystemResetWarning,0835.0,5.00,000.00,032.1,027.7,000.0,039.9,032.0,32.2,0000.0,0007.84,0003.96,0003.32
2023-08-02 15:06:00,SystemResetWarning,0835.0,4.99,000.00,032.1,026.0,000.0,039.8,031.7,32.4,0000.0,0007.75,0003.92,0003.32
2023-08-02 15:07:00,SystemResetWarning,0835.0,5.01,000.00,032.0,025.3,000.0,039.7,031.5,32.7,0000.0,0007.46,0003.87,0003.30
2023-08-02 15:08:00,SystemResetWarning,0835.0,5.01,000.00,031.8,025.4,000.0,039.7,031.3,33.5,0000.0,0007.28,0003.84,0003.30
2023-08-02 15:09:00,SystemResetWarning,0835.0,5.00,000.00,031.6,025.8,000.0,039.7,031.2,34.4,0000.0,0006.90,0003.81,0003.29
2023-08-02 15:10:00,SystemResetWarning,0834.9,4.97,000.00,031.5,026.2,000.0,039.7,031.3,35.0,0000.0,0007.18,0003.85,0003.27
2023-08-02 15:11:00,SystemResetWarning,0835.0,5.03,000.00,031.5,026.6,000.0,039.6,031.4,34.0,0000.0,0007.44,0003.84,0003.26
2023-08-02 15:12:00,SystemResetWarning,0835.0,4.98,000.00,031.5,027.0,000.0,039.6,031.5,32.4,0000.0,0008.04,0003.84,0003.24
2023-08-02 15:13:00,SystemResetWarning,0835.0,5.00,000.00,031.5,027.3,000.0,039.6,031.5,32.1,0000.0,0008.63,0003.83,0003.23
2023-08-02 15:14:00,SystemResetWarning,0835.0,5.01,000.00,031.5,027.6,000.0,039.6,031.6,31.9,0000.0,0008.71,0003.85,0003.23
2023-08-02 15:15:00,SystemResetWarning,0835.0,5.01,000.00,031.5,027.8,000.0,039.6,031.6,31.8,0000.0,0008.81,0003.87,0003.22
2023-08-02 15:16:00,SystemResetWarning,0835.0,5.00,000.00,031.4,028.0,000.0,039.6,031.7,31.7,0000.0,0008.74,0003.84,0003.21
2023-08-02 15:17:00,SystemResetWarning,0835.0,5.00,000.00,031.4,028.1,000.0,039.6,031.7,30.4,0000.0,0008.97,0003.82,0003.21
2023-08-02 15:18:00,SystemResetWarning,0834.9,5.00,000.00,031.4,028.3,000.0,039.6,031.7,31.2,0000.0,0009.49,0003.84,0003.20
2023-08-02 15:19:00,SystemResetWarning,0835.0,4.99,000.00,031.4,028.4,000.0,039.6,031.7,31.1,0000.0,0009.59,0003.86,0003.20
2023-08-02 15:20:00,SystemResetWarning,0834.9,4.99,000.00,031.4,028.5,000.0,039.6,031.8,30.9,0000.0,0009.69,0003.90,0003.21
2023-08-02 15:21:00,SystemResetWarning,0835.0,5.00,000.00,031.4,028.5,000.0,039.6,031.8,31.3,0000.0,0009.38,0003.86,0003.21
2023-08-02 15:22:00,SystemResetWarning,0835.0,5.01,000.00,031.3,028.6,000.0,039.6,031.9,32.7,0000.0,0009.30,0003.85,0003.21
2023-08-02 15:23:00,SystemResetWarning,0835.0,5.00,000.00,031.3,028.5,000.0,039.5,031.9,31.5,0000.0,0008.97,0003.88,0003.22
2023-08-02 15:24:00,SystemResetWarning,0835.0,4.99,000.00,031.3,027.1,000.0,039.4,031.8,31.3,0000.0,0008.39,0003.86,0003.23
2023-08-02 15:25:00,SystemResetWarning,0835.0,5.01,000.00,031.2,025.6,000.0,039.2,031.4,32.3,0000.0,0008.34,0003.85,0003.23
2023-08-02 15:26:00,SystemResetWarning,0835.0,5.01,000.00,031.1,025.2,000.0,039.2,031.2,31.8,0000.0,0008.53,0003.76,0003.23
2023-08-02 15:27:00,SystemResetWarning,0835.0,5.01,000.00,030.9,025.5,000.0,039.2,031.0,32.6,0000.0,0009.07,0003.77,0003.24
2023-08-02 15:28:00,SystemResetWarning,0835.0,5.00,000.00,030.8,025.9,000.0,039.2,031.0,33.9,0000.0,0009.30,0003.88,0003.27
2023-08-02 15:29:00,SystemResetWarning,0835.0,5.00,000.00,030.7,026.3,000.0,039.1,031.1,34.7,0000.0,0009.35,0004.00,0003.30
2023-08-02 15:30:00,SystemResetWarning,0835.0,5.00,000.00,030.7,026.7,000.0,039.1,031.2,33.5,0000.0,0009.77,0004.04,0003.31
2023-08-02 15:31:00,SystemResetWarning,0835.0,5.00,000.00,030.6,027.1,000.0,039.1,031.3,33.5,0000.0,0010.29,0004.09,0003.31
2023-08-02 15:32:00,SystemResetWarning,0835.0,4.99,000.00,030.6,027.4,000.0,039.1,031.3,32.2,0000.0,0010.90,0004.10,0003.31
2023-08-02 15:33:00,SystemResetWarning,0835.0,5.00,000.00,030.6,027.6,000.0,039.1,031.4,32.2,0000.0,0011.67,0004.10,0003.31
2023-08-02 15:34:00,SystemResetWarning,0835.0,5.00,000.00,030.6,027.8,000.0,039.0,031.4,32.6,0000.0,0011.67,0004.03,0003.29
2023-08-02 15:35:00,SystemResetWarning,0835.0,5.01,000.00,030.6,028.0,000.0,039.0,031.4,33.6,0000.0,0011.42,0003.97,0003.27
2023-08-02 15:36:00,SystemResetWarning,0835.1,5.01,000.00,030.6,028.2,000.0,039.0,031.5,33.9,0000.0,0011.28,0003.90,0003.24
2023-08-02 15:37:00,SystemResetWarning,0835.1,4.99,000.00,030.6,028.3,000.0,039.0,031.5,34.4,0000.0,0010.92,0003.89,0003.21
2023-08-02 15:38:00,SystemResetWarning,0835.0,4.98,000.00,030.6,028.4,000.0,039.0,031.6,34.7,0000.0,0010.37,0003.88,0003.18
2023-08-02 15:39:00,SystemResetWarning,0835.1,5.02,000.00,030.6,028.5,000.0,039.0,031.6,34.0,0000.0,0010.13,0003.78,0003.13
2023-08-02 15:40:00,SystemResetWarning,0835.1,5.00,000.00,030.7,028.6,000.0,039.0,031.7,32.8,0000.0,0009.58,0003.59,0003.05
2023-08-02 15:41:00,SystemResetWarning,0835.1,5.00,000.00,030.7,028.7,000.0,039.0,031.7,31.6,0000.0,0009.01,0003.52,0002.97
2023-08-02 15:42:00,SystemResetWarning,0835.1,5.00,000.00,030.7,028.7,000.0,039.0,031.7,30.9,0000.0,0008.44,0003.41,0002.90
2023-08-02 15:43:00,SystemResetWarning,0835.1,5.01,000.00,030.7,027.5,000.0,038.9,031.7,32.0,0000.0,0007.60,0003.35,0002.85
2023-08-02 15:44:00,SystemResetWarning,0835.0,4.99,000.00,030.7,025.9,000.0,038.7,031.4,31.5,0000.0,0006.39,0003.30,0002.80
2023-08-02 15:45:00,SystemResetWarning,0835.0,5.01,000.00,030.6,025.3,000.0,038.6,031.2,32.2,0000.0,0005.79,0003.31,0002.79
2023-08-02 15:46:00,SystemResetWarning,0835.0,5.01,000.00,030.4,025.5,000.0,038.7,031.0,34.3,0000.0,0006.04,0003.35,0002.77
2023-08-02 15:47:00,SystemResetWarning,0835.0,5.00,000.00,030.3,025.8,000.0,038.7,031.0,33.5,0000.0,0006.23,0003.39,0002.77
2023-08-02 15:48:00,SystemResetWarning,0835.1,4.99,000.00,030.2,026.3,000.0,038.7,031.0,32.0,0000.0,0006.33,0003.40,0002.78
2023-08-02 15:49:00,SystemResetWarning,0835.1,5.00,000.00,030.2,026.7,000.0,038.7,031.1,32.7,0000.0,0006.34,0003.40,0002.78
2023-08-02 15:50:00,SystemResetWarning,0835.1,5.01,000.00,030.2,027.0,000.0,038.7,031.2,33.2,0000.0,0007.08,0003.39,0002.80
2023-08-02 15:51:00,SystemResetWarning,0835.1,5.01,000.00,030.2,027.4,000.0,038.6,031.2,33.0,0000.0,0008.09,0003.40,0002.82
2023-08-02 15:52:00,SystemResetWarning,0835.1,5.00,000.00,030.2,027.6,000.0,038.6,031.3,31.6,0000.0,0008.05,0003.40,0002.84
2023-08-02 15:53:00,SystemResetWarning,0835.2,5.00,000.00,030.2,027.8,000.0,038.6,031.3,30.8,0000.0,0008.05,0003.40,0002.86
2023-08-02 15:54:00,SystemResetWarning,0835.2,5.00,000.00,030.2,028.0,000.0,038.6,031.3,30.6,0000.0,0007.99,0003.42,0002.89
2023-08-02 15:55:00,SystemResetWarning,0835.2,5.00,000.00,030.2,028.2,000.0,038.6,031.4,32.3,0000.0,0008.03,0003.46,0002.93
2023-08-02 15:56:00,SystemResetWarning,0835.3,5.00,000.00,030.2,028.3,000.0,038.6,031.4,31.3,0000.0,0007.91,0003.48,0002.97
2023-08-02 15:57:00,SystemResetWarning,0835.3,5.00,000.00,030.2,028.4,000.0,038.6,031.5,30.1,0000.0,0007.82,0003.48,0003.00
2023-08-02 15:58:00,SystemResetWarning,0835.3,4.99,000.00,030.2,028.5,000.0,038.6,031.5,31.4,0000.0,0007.77,0003.46,0003.03
2023-08-02 15:59:00,SystemResetWarning,0835.3,4.99,000.00,030.3,028.6,000.0,038.6,031.6,31.3,0000.0,0007.85,0003.49,0003.07
